FW8267 Weather Reports


time (UTC)temp
C
wind
direction
speed
KPH
gust
KPH
rain 1hr
cm
rain 24hr
cm
rain mn
cm
humidity
%
barometer
mb
20260507051559 17 0 0.0 4.8 0.00 0.00 0.00 67 1017.7
20260507050103 17 0 0.0 3.2 0.00 0.00 0.00 67 1017.7
20260507044623 17 237 0.0 4.8 0.00 0.00 0.00 66 1017.7
20260507043057 18 0 0.0 3.2 0.00 0.00 0.00 66 1017.7
20260507041557 18 0 0.0 8.0 0.00 0.00 0.00 65 1017.6
20260507034602 18 238 4.8 11.3 0.00 0.00 0.00 64 1017.3
20260507033127 18 238 0.0 1.6 0.00 0.00 0.00 63 1017.1
20260507031604 19 0 0.0 9.7 0.00 0.00 0.00 62 1016.9
20260507030109 20 0 0.0 8.0 0.00 0.00 0.00 61 1016.6
20260507024610 20 215 1.6 16.1 0.00 0.00 0.00 60 1016.5
20260507023056 20 0 1.6 11.3 0.00 0.00 0.00 58 1016.3
20260507021558 21 0 0.0 11.3 0.00 0.00 0.00 57 1016.1
20260507020104 21 224 1.6 14.5 0.00 0.00 0.00 55 1016.0
20260507014606 22 302 1.6 11.3 0.00 0.00 0.00 53 1015.9
20260507013103 22 0 1.6 12.9 0.00 0.00 0.00 52 1015.7
20260507011600 23 0 0.0 9.7 0.00 0.00 0.00 50 1015.6
20260507010058 23 204 4.8 16.1 0.00 0.00 0.00 50 1015.6
20260507004556 23 0 1.6 17.7 0.00 0.00 0.00 50 1015.4
20260507003111 23 242 1.6 19.3 0.00 0.00 0.00 49 1015.4
20260507001602 24 0 1.6 12.9 0.00 0.00 0.00 47 1015.5
20260507000057 25 0 3.2 16.1 0.00 0.00 0.00 47 1015.4
20260506234606 25 244 1.6 14.5 0.00 0.00 0.00 46 1015.3
20260506233059 25 229 1.6 14.5 0.00 0.00 0.00 45 1015.3
20260506231556 26 0 3.2 16.1 0.00 0.00 0.00 45 1015.2
20260506230104 26 234 3.2 16.1 0.00 0.00 0.00 44 1015.5
20260506224600 26 0 0.0 14.5 0.00 0.00 0.00 43 1015.4
20260506223056 26 0 0.0 11.3 0.00 0.00 0.00 41 1015.5
20260506221555 26 0 0.0 14.5 0.00 0.00 0.00 41 1015.8
20260506220101 26 0 0.0 12.9 0.00 0.00 0.00 41 1015.9
20260506214558 25 0 1.6 14.5 0.00 0.00 0.00 43 1016.1
20260506213055 25 0 0.0 12.9 0.00 0.00 0.00 44 1016.3
20260506211558 25 0 0.0 4.8 0.00 0.00 0.00 45 1016.5
20260506210058 24 0 0.0 3.2 0.00 0.00 0.00 45 1016.6
20260506204559 23 0 0.0 8.0 0.00 0.00 0.00 45 1016.7
20260506203057 25 0 0.0 3.2 0.00 0.00 0.00 44 1017.0
20260506201558 24 0 0.0 14.5 0.00 0.00 0.00 45 1017.2
20260506200105 22 0 0.0 8.0 0.00 0.00 0.00 47 1017.5
20260506194602 23 0 0.0 6.4 0.00 0.00 0.00 46 1017.7
20260506193108 22 0 0.0 0.0 0.00 0.00 0.00 49 1017.8
20260506191558 21 0 0.0 4.8 0.00 0.00 0.00 50 1018.0
20260506190101 21 0 0.0 3.2 0.00 0.00 0.00 49 1018.2
20260506184600 21 0 0.0 3.2 0.00 0.00 0.00 50 1018.5
20260506183100 21 0 0.0 0.0 0.00 0.00 0.00 52 1018.6
20260506181604 20 0 0.0 3.2 0.00 0.00 0.00 52 1018.8
20260506180100 20 0 0.0 1.6 0.00 0.00 0.00 52 1018.8
20260506174559 18 0 0.0 1.6 0.00 0.00 0.00 55 1018.8
20260506173127 18 0 0.0 1.6 0.00 0.00 0.00 55 1018.7
20260506171603 18 0 0.0 0.0 0.00 0.00 0.00 56 1019.0
20260506170100 17 0 0.0 0.0 0.00 0.00 0.00 56 1018.9
20260506164607 16 0 0.0 0.0 0.00 0.00 0.00 63 1018.8
20260506163105 16 0 0.0 0.0 0.00 0.00 0.00 66 1019.0
20260506161636 16 0 0.0 0.0 0.00 0.00 0.00 71 1019.1
20260506160108 15 0 0.0 0.0 0.00 0.00 0.00 73 1019.0
20260506154600 14 0 0.0 0.0 0.00 0.00 0.00 76 1019.1
20260506153100 13 0 0.0 0.0 0.00 0.00 0.00 79 1019.1
20260506151558 13 0 0.0 0.0 0.00 0.00 0.00 81 1019.1
20260506144559 12 0 0.0 0.0 0.00 0.00 0.00 85 1019.1
20260506143101 11 0 0.0 0.0 0.00 0.00 0.00 87 1019.0
20260506141558 11 0 0.0 0.0 0.00 0.00 0.00 88 1018.9
20260506140059 11 0 0.0 0.0 0.00 0.00 0.00 88 1019.1
20260506134601 10 0 0.0 0.0 0.00 0.00 0.00 88 1018.9
20260506133057 10 0 0.0 0.0 0.00 0.00 0.00 88 1018.5
20260506131603 10 0 0.0 0.0 0.00 0.00 0.00 88 1018.4
20260506130135 10 0 0.0 0.0 0.00 0.00 0.00 88 1018.2
20260506124602 10 0 0.0 0.0 0.00 0.00 0.00 88 1018.2
20260506123057 10 0 0.0 0.0 0.00 0.00 0.00 88 1018.0
20260506121559 10 0 0.0 0.0 0.00 0.00 0.00 87 1017.9
20260506120108 10 0 0.0 0.0 0.00 0.00 0.00 87 1017.9
20260506114557 10 0 0.0 0.0 0.00 0.30 0.00 87 1017.9
20260506113059 10 0 0.0 0.0 0.00 0.30 0.00 87 1017.9
20260506111557 10 0 0.0 0.0 0.00 0.30 0.00 86 1017.9
20260506104559 11 0 0.0 0.0 0.00 0.76 0.00 86 1017.9
20260506103100 11 0 0.0 0.0 0.00 0.76 0.00 85 1017.9
20260506101610 11 0 0.0 0.0 0.00 0.76 0.00 85 1017.8
20260506100119 11 0 0.0 0.0 0.00 0.76 0.00 84 1017.8
20260506094558 11 0 0.0 0.0 0.00 0.76 0.00 84 1017.9
20260506093057 11 0 0.0 0.0 0.00 0.76 0.00 83 1018.0
20260506091556 11 0 0.0 0.0 0.00 0.76 0.00 83 1017.9
20260506090058 12 0 0.0 0.0 0.00 0.76 0.00 82 1017.9
20260506084622 12 0 0.0 0.0 0.00 0.76 0.00 82 1018.0
20260506083059 12 0 0.0 0.0 0.00 0.76 0.00 81 1018.1
20260506081600 12 0 0.0 0.0 0.00 0.76 0.00 80 1018.2
20260506073058 12 0 0.0 0.0 0.00 0.76 0.00 78 1018.1
20260506071559 12 0 0.0 0.0 0.00 0.76 0.00 78 1018.2
20260506061557 13 0 0.0 0.0 0.00 0.76 0.76 75 1017.6